Flag for Greece Weather past 2 weeks in Ilioupoli, Greece

Now
75 °F

Clear.


Feels Like: 78 °F
Forecast: 74 / 87 °F
Wind: 8 mph from North

Location: Eleftherios Venizelos International Airport

Current Time: Aug 28, 2015 at 8:24:10 AM

Latest Report: Aug 28, 2015 at 7:20 AM


Visibility: 10 mi

Pressure: 30.04 "Hg

Humidity: 41%

Dew point: 50 °F

Location of IlioupoliLocation

Historic Weather in Ilioupoli — Graph

°F

Ilioupoli temperature yesterday

Maximum temperature yesterday: 86 °F (at 1:50 PM)
Minimum temperature yesterday: 72 °F (at 6:50 AM)
Average temperature yesterday: 79 °F

Past Weeks' High & Low Weather Summary

 TemperatureHumidityPressure
High97 °F (Aug 17, 2:50 PM)83% (Aug 13, 6:20 AM)30.04 "Hg (Aug 13, 6:20 AM)
Low66 °F (Aug 13, 6:50 AM)18% (Aug 17, 3:50 PM)29.77 "Hg (Aug 15, 4:50 PM)
Average81 °F49%29.89 "Hg
* Reported Aug 13 6:20 AM — Aug 28 6:50 AM, Ilioupoli, Weather by CustomWeather, © 2015

Note: Actual official high and low records may vary slightly from our data, if they occured in-between our weather recording intervals... More about our weather records

Advertising

Ilioupoli weather history for previous 24 hours

 ConditionsComfort  
Time TempWeatherWind HumidityBarometerVisibility
6:50 AM
Fri, Aug 28
75 °FClear.8 mph44%30.04 "Hg10 mi
5:50 AM75 °FClear.16 mph44%30.01 "Hg10 mi
5:20 AM77 °FClear.20 mph42%30.01 "Hg10 mi
4:50 AM75 °FClear.15 mph44%30.01 "Hg10 mi
4:20 AM77 °FClear.15 mph42%30.01 "Hg10 mi
3:50 AM75 °FClear.15 mph47%30.01 "Hg10 mi
3:20 AM77 °FClear.16 mph47%30.01 "Hg10 mi
2:50 AM75 °FClear.15 mph50%30.04 "Hg10 mi
2:20 AM77 °FClear.15 mph47%30.04 "Hg10 mi
1:50 AM77 °FClear.16 mph47%30.04 "Hg10 mi
1:20 AM77 °FClear.9 mph47%30.04 "Hg10 mi
12:50 AM77 °FClear.10 mph47%30.04 "Hg10 mi
12:20 AM77 °FClear.12 mph47%30.04 "Hg10 mi
11:50 PM
Thu, Aug 27
77 °FClear.8 mph47%30.04 "Hg10 mi
11:20 PM77 °FClear.12 mph47%30.04 "Hg10 mi
10:50 PM75 °FClear.13 mph50%30.04 "Hg10 mi
10:20 PM79 °FPassing clouds.7 mph42%30.04 "HgN/A
9:50 PM77 °FClear.9 mph47%30.04 "Hg10 mi
9:20 PM77 °FClear.7 mph47%30.04 "Hg10 mi
8:50 PM79 °FSunny.10 mph45%30.04 "Hg10 mi
8:20 PM79 °FSunny.9 mph45%30.01 "Hg10 mi
7:50 PM79 °FSunny.10 mph45%30.01 "Hg10 mi
7:20 PM79 °FSunny.16 mph45%30.01 "Hg10 mi
6:50 PM81 °FSunny.17 mph39%30.01 "Hg10 mi
6:20 PM81 °FSunny.16 mph45%30.01 "Hg10 mi
5:50 PM81 °FSunny.23 mph48%30.01 "Hg10 mi
5:20 PM82 °FSunny.21 mph42%30.01 "Hg10 mi
4:50 PM82 °FSunny.21 mph42%30.01 "Hg10 mi
4:20 PM84 °FSunny.21 mph31%30.01 "Hg10 mi
3:50 PM84 °FSunny.29 mph29%30.01 "Hg10 mi
3:20 PM84 °FSunny.26 mph29%30.01 "Hg10 mi
2:50 PM86 °FSunny.29 mph27%30.01 "Hg10 mi
2:20 PM84 °FSunny.26 mph27%30.01 "Hg10 mi
1:50 PM86 °FSunny.25 mph25%30.01 "Hg10 mi
1:20 PM84 °FSunny.22 mph25%30.01 "Hg10 mi
12:50 PM84 °FSunny.22 mph25%30.01 "Hg10 mi
12:20 PM82 °FSunny.23 mph28%30.01 "Hg10 mi
11:50 AM82 °FSunny.21 mph30%30.01 "Hg10 mi
11:20 AM82 °FSunny.23 mph30%30.01 "Hg10 mi
10:50 AM81 °FSunny.24 mph32%30.01 "Hg10 mi
10:20 AM81 °FSunny.20 mph34%30.01 "Hg10 mi
9:50 AM79 °FSunny.18 mph37%30.01 "Hg10 mi
9:20 AM79 °FSunny.17 mph39%30.01 "Hg10 mi
8:50 AM77 °FSunny.17 mph42%29.98 "Hg10 mi
8:20 AM75 °FSunny.12 mph44%29.98 "Hg10 mi
Weather by CustomWeather, © 2015

See weather overviewHow to use our weather pages